Regional Weather Roundup
Issued by NWS

Home | Current Version | Previous Version | Graphics & Text | Print | Product List | Glossary On
Versions: 1 2 3 4 5 6 7 8 9 10 11 12 13 14 15 16 17 18 19 20 21 22 23 24 25 26 27 28 29 30 31 32 33 34 35 36 37 38 39 40 41 42 43 44 45 46 47 48 49 50
000
ASUS43 KOAX 230110
RWRNE

WEATHER ROUNDUP FOR NEBRASKA
NATIONAL WEATHER SERVICE OMAHA NE
800 PM CDT FRI AUG 22 2014

NOTES: SATELLITE DATA IS BEING USED TO AUGMENT CLOUD COVER ABOVE
       12000 FEET.
       "FAIR" INDICATES FEW OR NO CLOUDS BELOW 12,000 FEET WITH NO
       SIGNIFICANT WEATHER AND/OR OBSTRUCTIONS TO VISIBILITY.

  * THESE STATIONS DO NOT REPORT WEATHER SUCH AS RAIN...SNOW OR FOG.

NEZ001>004-019>022-054>056-230200-
NEBRASKA PANHANDLE

CITY           SKY/WX    TMP DP  RH WIND       PRES   REMARKS
SCOTTSBLUFF    CLOUDY    66  63  90 E12       30.03S
ALLIANCE       CLOUDY    65  59  81 SE5       30.02F
CHADRON        MOCLDY    77  55  46 SE10      29.97F
KIMBALL        RAIN      62  61  96 S9        30.07F
SIDNEY         RAIN      65  62  90 W10       30.08S FOG
$$

NEZ057>060-069>072-079>082-230200-
SOUTHWEST NEBRASKA

CITY           SKY/WX    TMP DP  RH WIND       PRES   REMARKS
NORTH PLATTE   CLOUDY    78  66  66 NE8       29.96R
IMPERIAL       RAIN      69  64  84 NE12      29.98S
LEXINGTON      CLOUDY    80  74  81 E8        29.92F
MCCOOK         CLOUDY    81  70  69 E15       29.90F
OGALLALA       CLOUDY    73  59  61 N8        29.98F
$$

NEZ005>010-023>029-035>040-094-230200-
NORTH CENTRAL NEBRASKA

CITY           SKY/WX    TMP DP  RH WIND       PRES   REMARKS
VALENTINE      CLOUDY    76  61  59 S6        29.98F
AINSWORTH      MOCLDY    74  66  76 CALM      30.00R
BROKEN BOW     MOCLDY    81  69  67 NE7       29.95R
O`NEILL        PTCLDY    77  71  81 E6        29.97S
ORD            MOCLDY    80  68  66 NE8       29.93S
THEDFORD       CLOUDY    73  63  72 NE3       30.02R
$$

NEZ041-046>049-061>064-073>077-083>087-230200-
SOUTH CENTRAL NEBRASKA

CITY           SKY/WX    TMP DP  RH WIND       PRES   REMARKS
GRAND ISLAND   CLOUDY    82  75  79 E6        29.92S
AURORA         MOCLDY    81  79  92 NE5       29.91F HX  91
HASTINGS       MOCLDY    80  71  74 E7        29.92S
HEBRON         PTCLDY    82  72  71 NE5       29.89R
HOLDREGE       CLOUDY    79  73  82 E9        29.90F
KEARNEY *      CLOUDY    79  73  83 E5        29.94R
YORK           PTCLDY    81 N/A N/A E12       29.92S
$$

NEZ011>018-030>034-042>045-230200-
NORTHEAST NEBRASKA

CITY           SKY/WX    TMP DP  RH WIND       PRES   REMARKS
NORFOLK        PTCLDY    83  72  69 NE8       29.93R
ALBION         PTCLDY    81  69  67 NE8       29.94S
BLAIR          MOCLDY    75  73  91 N8        29.94S
FREMONT        CLOUDY    75  71  86 NE7       29.93S
TEKAMAH        CLOUDY    73  72  96 CALM      29.92F
WAYNE          CLOUDY    81  76  84 NE8       29.93S
$$

NEZ050>053-065>068-078-088>093-230200-
SOUTHEAST NEBRASKA

CITY           SKY/WX    TMP DP  RH WIND       PRES   REMARKS
LINCOLN        MOCLDY    83  72  69 E8        29.91R
OMAHA EPPLEY   CLOUDY    76  74  93 N6        29.92R
BEATRICE       MOCLDY    82  74  78 NE8       29.90R
FALLS CITY     MOCLDY    78  74  87 NE6       29.91R
NEBRASKA CITY  MOCLDY    78  74  89 SE3       29.94R
PLATTSMOUTH    MOCLDY    78  74  85 SE5       29.93R
$$

NEZ044-045-051>053-067-230200-
OMAHA AREA

CITY           SKY/WX    TMP DP  RH WIND       PRES   REMARKS
OMAHA EPPLEY   CLOUDY    76  74  93 N6        29.92R
BLAIR          MOCLDY    75  73  91 N8        29.94S
FREMONT        CLOUDY    75  71  86 NE7       29.93S
MILLARD        MOCLDY    79  74  87 CALM      29.91F
OFFUTT AFB     MOCLDY    79  79 100 NE6       29.92R
PLATTSMOUTH    MOCLDY    78  74  85 SE5       29.93R
WAHOO          FAIR      73  68  84 NE9       29.92S HAZE
$$



USA.gov is the U.S. government's official web portal to all federal, state and local government web resources and services.